| time (UTC) | temp F | wind direction | speed MPH | gust MPH | rain 1hr in | rain 24hr in | rain mn in | humidity % | barometer mb |
| 20260504233011 | 55 | 0.0 | 0.0 | 0.00 | 0.00 | 0.00 | 71 | 1023.6 | |
| 20260504231510 | 55 | 0.0 | 0.0 | 0.00 | 0.00 | 0.00 | 72 | 1023.5 | |
| 20260504230011 | 55 | 0.0 | 0.0 | 0.00 | 0.00 | 0.00 | 71 | 1023.4 | |
| 20260504224525 | 55 | 0.0 | 0.0 | 0.00 | 0.00 | 0.00 | 71 | 1023.1 | |
| 20260504223010 | 55 | 0.0 | 0.0 | 0.00 | 0.00 | 0.00 | 71 | 1022.8 | |
| 20260504221511 | 55 | 0.0 | 0.0 | 0.00 | 0.00 | 0.00 | 70 | 1022.7 | |
| 20260504220010 | 56 | 0.0 | 0.0 | 0.00 | 0.00 | 0.00 | 70 | 1022.7 | |
| 20260504214511 | 56 | 0.0 | 0.0 | 0.00 | 0.00 | 0.00 | 70 | 1022.6 | |
| 20260504213012 | 56 | 0.0 | 0.0 | 0.00 | 0.00 | 0.00 | 70 | 1022.6 | |
| 20260504211511 | 56 | 0.0 | 0.0 | 0.00 | 0.00 | 0.00 | 70 | 1022.6 | |
| 20260504210012 | 56 | 0.0 | 0.0 | 0.00 | 0.00 | 0.00 | 70 | 1022.6 | |
| 20260504204511 | 56 | 0.0 | 0.0 | 0.00 | 0.00 | 0.00 | 70 | 1022.7 | |
| 20260504203020 | 56 | 0.0 | 0.0 | 0.00 | 0.00 | 0.00 | 69 | 1022.6 | |
| 20260504201511 | 56 | 0.0 | 0.0 | 0.00 | 0.00 | 0.00 | 70 | 1022.6 | |
| 20260504200355 | 56 | 0.0 | 0.0 | 0.00 | 0.00 | 0.00 | 70 | 1022.6 | |
| 20260504200010 | 56 | 0.0 | 0.0 | 0.00 | 0.00 | 0.00 | 70 | 1022.6 | |
| 20260504194510 | 56 | 0.0 | 0.0 | 0.00 | 0.00 | 0.00 | 70 | 1022.7 | |
| 20260504193010 | 56 | 0.0 | 0.0 | 0.00 | 0.00 | 0.00 | 70 | 1022.8 | |
| 20260504191512 | 56 | 0.0 | 0.0 | 0.00 | 0.00 | 0.00 | 70 | 1022.8 | |
| 20260504190010 | 56 | 0.0 | 0.0 | 0.00 | 0.00 | 0.00 | 69 | 1022.9 | |
| 20260504184511 | 56 | 0.0 | 0.0 | 0.00 | 0.00 | 0.00 | 69 | 1022.8 | |
| 20260504183013 | 56 | 0.0 | 0.0 | 0.00 | 0.00 | 0.00 | 69 | 1022.9 | |
| 20260504181514 | 56 | 0.0 | 0.0 | 0.00 | 0.00 | 0.00 | 69 | 1023.1 | |
| 20260504180124 | 56 | 0.0 | 0.0 | 0.00 | 0.00 | 0.00 | 68 | 1023.2 | |
| 20260504180011 | 56 | 0.0 | 0.0 | 0.00 | 0.00 | 0.00 | 68 | 1023.2 | |
| 20260504174511 | 57 | 0.0 | 0.0 | 0.00 | 0.00 | 0.00 | 67 | 1023.1 | |
| 20260504173012 | 57 | 0.0 | 0.0 | 0.00 | 0.00 | 0.00 | 67 | 1023.1 | |
| 20260504171511 | 58 | 0.0 | 0.0 | 0.00 | 0.00 | 0.00 | 67 | 1023.2 | |
| 20260504081511 | 73 | 0.0 | 0.0 | 0.00 | 0.00 | 0.00 | 52 | 1021.9 | |
| 20260504050011 | 73 | 0.0 | 0.0 | 0.00 | 0.00 | 0.00 | 49 | 1023.1 | |
| 20260504044511 | 72 | 0.0 | 0.0 | 0.00 | 0.00 | 0.00 | 50 | 1023.3 | |
| 20260504043012 | 71 | 0.0 | 0.0 | 0.00 | 0.00 | 0.00 | 50 | 1023.5 | |
| 20260504041512 | 70 | 0.0 | 0.0 | 0.00 | 0.00 | 0.00 | 51 | 1023.8 | |
| 20260504040010 | 70 | 0.0 | 0.0 | 0.00 | 0.00 | 0.00 | 52 | 1024.2 | |
| 20260504034512 | 70 | 0.0 | 0.0 | 0.00 | 0.00 | 0.00 | 52 | 1024.5 | |
| 20260504033011 | 70 | 0.0 | 0.0 | 0.00 | 0.00 | 0.00 | 54 | 1024.7 | |
| 20260504031511 | 69 | 0.0 | 0.0 | 0.00 | 0.00 | 0.00 | 55 | 1024.7 | |
| 20260504030010 | 68 | 0.0 | 0.0 | 0.00 | 0.00 | 0.00 | 56 | 1024.9 | |
| 20260504024511 | 67 | 0.0 | 0.0 | 0.00 | 0.00 | 0.00 | 56 | 1025.1 | |
| 20260504023012 | 67 | 0.0 | 0.0 | 0.00 | 0.00 | 0.00 | 55 | 1025.2 | |
| 20260504021512 | 66 | 0.0 | 0.0 | 0.00 | 0.00 | 0.00 | 57 | 1025.2 | |
| 20260504020011 | 65 | 0.0 | 0.0 | 0.00 | 0.00 | 0.00 | 59 | 1025.3 | |
| 20260504014510 | 63 | 0.0 | 0.0 | 0.00 | 0.00 | 0.00 | 62 | 1025.4 | |
| 20260504013014 | 62 | 0.0 | 0.0 | 0.00 | 0.00 | 0.00 | 65 | 1025.4 | |
| 20260504011511 | 61 | 0.0 | 0.0 | 0.00 | 0.00 | 0.00 | 67 | 1025.5 | |
| 20260504010012 | 60 | 0.0 | 0.0 | 0.00 | 0.00 | 0.00 | 69 | 1025.5 | |
| 20260504004512 | 58 | 0.0 | 0.0 | 0.00 | 0.00 | 0.00 | 70 | 1025.5 | |
| 20260504003019 | 57 | 0.0 | 0.0 | 0.00 | 0.00 | 0.00 | 72 | 1025.6 | |
| 20260504001512 | 56 | 0.0 | 0.0 | 0.00 | 0.00 | 0.00 | 73 | 1025.5 | |
| 20260504000011 | 55 | 0.0 | 0.0 | 0.00 | 0.00 | 0.00 | 74 | 1025.4 | |
| 20260503234511 | 54 | 0.0 | 0.0 | 0.00 | 0.00 | 0.00 | 73 | 1025.2 |